Regional Weather Roundup
Issued by NWS

Home | Current Version | Previous Version | Graphics & Text | Print | Product List | Glossary On
Versions: 1 2 3 4 5 6 7 8 9 10 11 12 13 14 15 16 17 18 19 20 21 22 23 24 25 26 27 28 29 30 31 32 33 34 35 36 37 38 39 40 41 42 43 44 45 46 47 48 49 50
000
ASUS43 KFSD 172110
RWRSD

WEATHER ROUNDUP FOR SOUTH DAKOTA
NATIONAL WEATHER SERVICE SIOUX FALLS SD
400 PM CDT FRI APR 17 2015

NOTE: "FAIR" INDICATES FEW OR NO CLOUDS BELOW 12,000 FEET WITH NO
SIGNIFICANT WEATHER AND/OR OBSTRUCTIONS TO VISIBILITY.


SDZ001>005-009-010-012>017-172200-
NORTHWEST AND NORTH CENTRAL SOUTH DAKOTA

CITY           SKY/WX    TMP DP  RH WIND       PRES   REMARKS
FAITH            N/A     66  21  18 NE6       30.12F
MOBRIDGE       MOSUNNY   72  22  15 VRB3      30.09F
$$

SDZ012>016-024>037-041>051-057-063-072>074-172200-
SOUTHWEST AND SOUTH CENTRAL SOUTH DAKOTA

CITY           SKY/WX    TMP DP  RH WIND       PRES   REMARKS
RAPID CTY ARPT CLOUDY    58  30  34 E8        30.14F
PIERRE         CLOUDY    70  31  23 NE5       30.08F
CUSTER         LGT RAIN  43  32  65 NE12      30.16F
ELLSWORTH AFB  CLOUDY    58  33  37 E5        30.13F
PHILIP         CLOUDY    66  32  28 E10       30.10F
PINE RIDGE     CLOUDY    50  45  83 N10       30.11F
SPEARFISH      FAIR      57  36  44 E13       30.15F
WINNER         CLOUDY    69  40  34 E9        30.09F
$$

SDZ004>011-016>023-039-040-172200-
NORTHEAST SOUTH DAKOTA

CITY           SKY/WX    TMP DP  RH WIND       PRES   REMARKS
ABERDEEN       MOSUNNY   75  23  14 NW12      30.08F
WATERTOWN      MOSUNNY   70  19  14 NW8       30.08F
BROOKINGS      SUNNY     72  28  20 N12       30.07F
SISSETON         N/A     73  14  10 N8        30.06F
$$

SDZ017-020-022-023-036>040-048>070-172200-
SOUTHEAST SOUTH DAKOTA

CITY           SKY/WX    TMP DP  RH WIND       PRES   REMARKS
SIOUX FALLS    PTSUNNY   75  41  29 CALM      30.04F
HURON          MOSUNNY   75  29  18 N12       30.07F
CHAMBERLAIN    CLOUDY    69  38  31 NE8       30.07F
MITCHELL       PTSUNNY   74  39  28 NE12      30.06F
YANKTON        CLOUDY    68  48  49 SW7       30.04F
$$

ABBREVIATIONS USED IN REMARKS
   TC - TEMPERATURE IN CELSIUS
  WCI - WIND CHILL INDEX
   HX - HEAT INDEX
  VSB - VISIBILITY




USA.gov is the U.S. government's official web portal to all federal, state and local government web resources and services.